Startseite
Über Mich
AHP4
Galerie
Sehschlangen
Tourenbuch
Bookmarks
Elektronik
Bewertung
Geschichten
[Tagesmessung] [Jahreswerte] [Information]

Messwerte vom 22.02.2022

Die letzten Messwerte von 23:58:47 Uhr:
KategorieMesswert
Temperatur [°C]5
Luftdruck [mBar]998
Sonneneinstrahlung0
Wind [km/h]0 aus Süd
Niederschlag [l/m²]0
rel.Luftfeucht.96.6%
CO2 [ppm]407

Diagramme
Messwerte vom 22.02.2022
Tagesaggregation
KategorieMinimumMaximumSchnittSumme
Temperatur [°C]184.9875
Luftdruck [mBar]9891000995.5250
Sonneneinstrahlung22982.6792
Wind [km/h]0
rF [%]69.796.692.39
Niederschlag [l/m²]2.575
CO2 [ppm]401667512.2
Einordnung alsKalter Tag

Messungen an benachbarten Tagen: Zur Jahresaggregation 2022
Tabelle aller Messwerte
UhrzeitTemperatur [°C]Luftdruck [mBar]SonneWind [km/h]RichtungRegen [l/m²]rF [%]CO2 [ppm]
00:01:44 4 989 0 0 W 0 96.6 494
00:04:45 4 989 0 0 O 0 96.6 501
00:07:46 4 989 0 0 W 0 96.6 501
00:10:48 4 989 0 0 NW 0 96.6 500
00:13:46 4 989 0 0 SW 0 96.6 498
00:16:47 4 989 0 0 W 0 96.6 495
00:19:47 4 989 0 0 SW 0 96.6 501
00:22:46 4 990 0 0 SW 0 96.6 498
00:25:49 4 989 0 0 NW 0 96.6 499
00:28:48 4 990 0 0 W 0 96.6 498
00:31:48 4 989 0 0 SW 0 96.6 489
00:34:48 4 989 0 0 S 0 96.6 487
00:37:46 4 989 0 0 W 0 96.6 489
00:40:47 4 990 0 0 S 0 96.6 492
00:43:48 4 990 0 0 NW 0 96.6 496
00:46:49 4 990 0 0 NW 0 96.6 504
00:49:45 4 990 0 0 W 0 96.6 497
00:52:48 4 989 0 0 W 0 96.6 507
00:55:48 4 990 0 0 NW 0 96.6 507
00:58:47 4 990 0 0 W 0 96.6 512
01:01:45 4 989 0 0 W 0 96.6 515
01:04:48 4 990 0 0 S 0 96.6 502
01:07:47 4 990 0 0 SW 0 96.6 495
01:10:48 4 990 0 0 SW 0 96.6 487
01:13:46 4 989 0 0 SW 0 96.6 483
01:16:48 4 989 0 0 N 0 96.6 491
01:19:46 4 990 0 0 SW 0 96.6 492
01:22:46 4 990 0 0 N 0 96.6 495
01:25:46 4 990 0 0 S 0 96.6 491
01:28:45 4 990 0 0 W 0 96.6 495
01:31:47 4 991 0 0 SW 0 96.6 490
01:34:45 4 991 0 0 W 0 96.6 492
01:37:48 4 991 0 0 W 0 96.6 489
01:40:45 4 991 0 0 N 0 96.6 484
01:43:48 4 991 0 0 SW 0 96.6 487
01:46:48 4 991 0 0 SO 0 96.6 489
01:49:47 4 991 0 0 NW 0 96.6 492
01:52:47 4 991 0 0 NW 0 96.6 486
01:55:46 4 991 0 0 W 0 96.6 478
01:58:45 4 991 0 0 W 0 96.6 466
02:01:46 4 991 0 0 W 0 96.6 471
02:04:47 4 991 0 0 W 0 96.6 471
02:07:49 4 991 0 0 W 0 96.6 471
02:10:45 4 991 0 0 W 0 96.6 468
02:13:46 4 991 0 0 SW 0 96.6 466
02:16:47 4 991 0 0 SW 0 96.6 475
02:19:47 4 991 0 0 W 0.2575 96.6 469
02:22:47 4 991 0 0 W 0 96.6 471
02:25:46 4 991 0 0 W 0 96.6 471
02:28:49 4 991 0 0 NW 0 96.6 474
02:31:45 4 992 0 0 O 0 96.6 471
02:34:46 4 992 0 0 SO 0 96.6 472
02:37:48 4 992 0 0 NW 0 96.6 465
02:40:46 4 991 0 0 W 0 96.6 451
02:43:49 4 991 0 0 SW 0 96.6 450
02:46:48 4 991 0 0 NW 0 96.6 447
02:49:47 4 992 0 0 W 0 96.6 455
02:52:46 4 992 0 0 W 0 96.6 456
02:55:47 4 992 0 0 SW 0 96.6 464
02:58:48 4 991 0 0 NW 0 96.6 460
03:01:46 4 992 0 0 O 0 96.6 463
03:04:48 4 993 0 0 W 0 96.6 463
03:07:46 4 993 0 0 SW 0 96.6 468
03:10:47 3 992 0 0 SW 0 96.6 463
03:13:45 3 992 0 0 W 0 96.6 457
03:16:47 3 992 0 0 NW 0 96.6 460
03:19:48 3 993 0 0 O 0 96.6 455
03:22:48 3 994 0 0 NW 0 96.6 460
03:25:46 3 993 0 0 S 0 96.6 463
03:28:47 3 993 0 0 SW 0 96.6 468
03:31:49 3 993 0 0 SO 0 96.6 466
03:34:48 3 993 0 0 NW 0 96.6 460
03:37:46 3 995 0 0 SW 0 96.6 456
03:40:47 3 994 0 0 SW 0 96.6 454
03:43:48 3 994 0 0 S 0 96.6 455
03:46:48 3 993 0 0 SW 0 96.6 457
03:49:47 3 993 0 0 SW 0 96.6 463
03:52:48 3 993 0 0 W 0 96.6 464
03:55:46 3 994 0 0 SW 0 96.6 466
03:58:48 3 995 0 0 NW 0 96.6 462
04:01:47 3 994 0 0 SW 0 96.6 460
04:04:45 3 994 0 0 S 0 96.6 454
04:07:45 3 994 0 0 W 0 96.6 451
04:10:46 3 994 0 0 S 0 96.6 451
04:13:47 3 994 0 0 SW 0 96.6 466
04:16:46 3 994 0 0 SW 0 96.6 466
04:19:47 3 995 0 0 S 0 96.6 466
04:22:48 3 995 0 0 SW 0 96.6 466
04:25:48 3 995 0 0 SW 0 96.6 459
04:28:47 3 995 0 0 SW 0 96.6 463
04:31:45 3 995 0 0 SW 0 96.6 462
04:34:46 3 995 0 0 SW 0 96.6 469
04:37:46 3 995 0 0 S 0 96.6 468
04:40:47 3 995 0 0 SW 0 96.6 468
04:43:45 3 995 0 0 O 0 96.6 460
04:46:45 3 995 0 0 W 0 96.6 463
04:49:49 3 995 0 0 NW 0 96.6 465
04:52:46 3 995 0 0 S 0 96.6 458
04:55:47 3 995 0 0 NO 0 96.6 451
04:58:48 3 995 0 0 NW 0 96.6 454
05:01:45 3 995 0 0 W 0 96.6 448
05:04:46 3 995 0 0 S 0 96.6 456
05:07:45 3 995 0 0 W 0 96.6 466
05:10:48 3 995 0 0 W 0 96.6 466
05:13:47 2 995 0 0 NW 0 96.6 466
05:16:46 2 995 0 0 NW 0 96.6 457
05:19:47 2 995 0 0 NW 0 96.6 460
05:22:48 2 995 0 0 SW 0 96.6 469
05:25:49 2 995 0 0 SO 0 96.6 472
05:28:47 2 995 0 0 SW 0 96.6 469
05:31:45 2 995 0 0 S 0 96.6 468
05:34:47 2 995 0 0 SW 0 96.6 468
05:37:48 2 995 0 0 W 0 96.6 466
05:40:46 2 995 0 0 NW 0 96.6 472
05:43:45 2 995 0 0 S 0 96.6 468
05:46:45 2 995 0 0 SO 0 96.6 471
05:49:48 3 995 0 0 NO 0 96.6 474
05:52:47 3 995 0 0 SW 0 96.6 468
05:55:47 3 995 0 0 S 0 96.6 475
05:58:48 3 995 0 0 W 0 96.6 480
06:01:45 3 995 0 0 W 0 96.6 480
06:04:48 3 995 0 0 NW 0 96.6 475
06:07:46 3 995 0 0 W 0 96.6 475
06:10:48 3 995 0 0 SW 0 96.6 471
06:13:47 3 995 0 0 SW 0 96.6 474
06:16:46 3 996 0 0 W 0 96.6 471
06:19:47 3 995 0 0 SW 0 96.6 474
06:22:45 3 995 0 0 N 0 96.6 467
06:25:46 3 996 0 0 W 0 96.6 466
06:28:47 3 996 0 0 SW 0 96.6 462
06:31:50 3 996 0 0 W 0 96.6 472
06:34:48 3 996 0 0 NW 0 96.6 480
06:37:46 3 996 0 0 NW 0 96.6 481
06:40:45 3 996 0 0 N 0 96.6 478
06:43:46 3 996 0 0 S 0.2575 96.6 474
06:46:47 2 996 0 0 NW 0 96.6 477
06:49:48 2 997 0 0 NW 0.2575 96.6 471
06:52:48 2 996 0 0 SW 0 96.6 477
06:55:46 2 997 4 0 SW 0 96.6 474
06:58:47 1 996 7 0 W 0 96.6 483
07:01:48 1 996 12 0 SW 0 96.6 485
07:04:47 1 996 18 0 W 0 96.6 480
07:07:47 1 996 27 0 NW 0 96.6 465
07:10:45 2 997 38 0 W 0 96.6 457
07:13:47 2 997 50 0 W 0 96.6 460
07:16:47 2 996 64 0 SW 0 96.6 463
07:19:47 2 996 76 0 SW 0 96.6 469
07:22:46 2 997 89 0 SW 0 96.6 498
07:25:47 2 997 100 0 S 0 96.6 518
07:28:47 2 997 110 0 SW 0 96.6 524
07:31:48 2 997 119 0 SW 0 96.6 536
07:34:45 2 997 123 0 S 0 96.6 542
07:37:47 2 997 118 0 W 0 96.6 541
07:40:50 2 997 133 0 NW 0 96.6 542
07:43:46 2 997 144 0 SW 0 96.6 547
07:46:49 2 998 149 0 SW 0 96.6 539
07:49:48 2 997 152 0 0 96.6 536
07:52:46 2 998 154 0 O 0 96.6 533
07:55:47 2 998 151 0 SW 0 96.6 544
07:58:46 2 998 157 0 N 0 96.6 551
08:01:48 2 998 166 0 SW 0 96.6 554
08:04:45 2 998 179 0 0 96.6 559
08:07:47 2 998 175 0 SW 0 96.6 564
08:10:48 2 998 175 0 W 0 96.6 565
08:13:47 2 998 176 0 SW 0 96.6 573
08:16:49 3 998 180 0 W 0 96.6 568
08:19:48 3 998 183 0 SW 0 96.6 565
08:22:47 3 998 186 0 SW 0 96.6 567
08:25:47 3 998 174 0 NW 0 96.6 571
08:28:48 3 998 189 0 S 0 96.6 577
08:31:51 3 998 191 0 NW 0 96.6 565
08:34:48 3 998 189 0 W 0 96.6 556
08:37:47 3 998 193 0 W 0 96.6 554
08:40:47 3 998 183 0 S 0 96.6 553
08:43:51 3 998 186 0 NW 0 96.6 548
08:46:49 3 998 183 0 SW 0 96.6 553
08:49:51 3 998 181 0 SW 0 96.6 562
08:52:47 3 998 191 0 SW 0 96.6 568
08:55:48 3 998 191 0 S 0 96.6 571
08:58:48 3 998 190 0 S 0 96.6 574
09:01:48 3 998 187 0 S 0 96.6 576
09:04:47 3 998 190 0 SW 0 96.6 571
09:07:48 3 998 188 0 SW 0 96.6 574
09:10:47 3 998 194 0 W 0 96.6 577
09:13:49 3 998 198 0 W 0 96.6 585
09:16:50 3 998 200 0 SW 0 96.6 592
09:19:50 4 998 196 0 SW 0 96.6 577
09:22:46 4 998 190 0 N 0 96.6 565
09:25:48 4 998 191 0 NW 0 96.6 559
09:28:48 4 998 193 0 S 0 96.6 562
09:31:48 4 998 186 0 SW 0 96.6 573
09:34:49 4 998 180 0 SW 0 96.6 588
09:37:50 4 998 179 0 NW 0 96.6 592
09:40:46 4 998 185 0 W 0 96.6 591
09:43:48 4 999 197 0 W 0 96.6 592
09:46:50 4 998 200 0 SW 0 96.6 598
09:49:48 4 999 197 0 W 0 96.6 600
09:52:48 4 998 200 0 S 0 96.6 605
09:55:48 4 999 199 0 S 0 96.6 601
09:58:52 4 999 197 0 W 0 96.6 600
10:01:45 4 998 202 0 O 0 96.6 579
10:04:47 4 999 200 0 S 0 96.6 556
10:07:49 4 998 200 0 W 0 96.6 559
10:10:47 4 998 200 0 SW 0 96.6 576
10:13:47 5 998 199 0 N 0 96.6 579
10:16:50 5 998 211 0 SW 0 96.6 564
10:19:48 5 998 213 0 W 0 96.6 568
10:22:47 5 999 214 0 W 0 96.6 564
10:25:47 5 999 218 0 NW 0 96.6 574
10:28:47 5 999 213 0 W 0 96.4 589
10:31:46 5 998 215 0 SW 0 96.1 594
10:34:49 5 998 217 0 N 0 93.8 589
10:37:47 5 999 224 0 W 0 94.8 582
10:40:51 6 999 220 0 SW 0 94.8 583
10:43:47 6 999 214 0 S 0 94.6 594
10:46:46 6 999 214 0 NW 0 93 589
10:49:49 6 998 209 0 SW 0 92.1 590
10:52:50 6 999 217 0 NW 0 92.2 589
10:55:47 6 999 211 0 W 0 92.4 592
10:58:46 6 999 207 0 W 0 91.5 594
11:01:49 5 999 220 0 NW 0 90.8 588
11:04:49 6 999 221 0 SW 0 91.6 585
11:07:48 6 999 220 0 NW 0 91.8 582
11:10:47 6 999 219 0 S 0 91.9 577
11:13:50 6 999 215 0 NW 0 91.6 578
11:16:51 6 998 214 0 NW 0 89.7 580
11:19:47 6 999 213 0 S 0 89.2 571
11:22:49 6 998 212 0 SW 0 89.2 573
11:25:47 6 999 220 0 W 0 89.1 574
11:28:48 6 999 222 0 NW 0 89.7 585
11:31:48 6 998 218 0 SW 0 90.8 579
11:34:50 6 998 216 0 NW 0 89.1 598
11:37:47 6 998 216 0 S 0 87.3 605
11:40:48 6 998 217 0 W 0 86.8 612
11:43:47 6 999 214 0 SW 0 87.1 592
11:46:48 6 998 221 0 SW 0 85.4 591
11:49:49 6 999 217 0 NW 0 85.5 591
11:52:48 6 999 219 0 W 0 85.9 586
11:55:48 6 998 218 0 SW 0 84.9 582
11:58:46 6 999 217 0 N 0 84.9 582
12:01:48 6 998 216 0 W 0 85 589
12:04:48 6 998 224 0 SO 0 84.6 598
12:07:48 7 999 214 0 NO 0 83.1 604
12:10:49 7 999 219 0 S 0 82.6 592
12:13:46 7 999 217 0 W 0 81.4 594
12:16:49 6 998 213 0 SW 0 81.6 594
12:19:49 6 999 212 0 SW 0 82.2 594
12:22:48 6 999 210 0 SW 0 83.1 597
12:25:47 6 999 211 0 NW 0 83.4 597
12:28:47 6 999 209 0 S 0 83.4 603
12:31:46 6 999 205 0 NW 0 84.3 611
12:34:49 6 999 214 0 W 0 84 620
12:37:50 6 999 221 0 SW 0 83.9 623
12:40:47 6 999 213 0 W 0 84.4 609
12:43:34 5 998 222 0 NW 0 76.4 598
12:46:48 7 1000 224 0 NO 0 82.3 589
12:49:49 7 998 225 0 SW 0 82.6 603
12:52:45 7 999 228 0 0 82 607
12:55:48 7 999 229 0 SW 0 80.8 606
12:58:50 8 999 224 0 SW 0 77 615
13:01:47 8 998 217 0 W 0 76.8 617
13:04:49 8 999 222 0 SO 0 75.8 615
13:07:50 8 999 219 0 SW 0 76.7 613
13:10:46 8 999 226 0 W 0 77.2 612
13:13:50 7 998 228 0 S 0 77.2 615
13:16:45 8 999 228 0 N 0 77.3 612
13:19:49 8 999 228 0 SW 0 77.5 609
13:22:31 7 998 228 0 SO 0 69.7 611
13:25:49 8 999 227 0 W 0 73.8 614
13:28:46 8 999 224 0 S 0 73.7 621
13:31:48 8 998 220 0 NW 0 74.1 615
13:34:45 7 999 220 0 W 0 75.4 606
13:37:45 7 999 221 0 S 0 74.4 599
13:40:47 7 999 222 0 N 0 73.6 601
13:43:48 7 999 223 0 W 0 75.1 601
13:46:46 7 998 220 0 W 0 74.7 610
13:49:49 7 999 219 0 W 0 75.5 607
13:52:50 7 998 223 0 W 0 73.8 622
13:55:47 7 998 222 0 W 0 73.6 623
13:58:46 7 998 223 0 W 0 72.7 626
14:01:49 7 998 224 0 SW 0 73.9 620
14:04:48 7 999 226 0 O 0 74 620
14:07:48 7 998 227 0 NW 0 73.7 615
14:10:50 7 998 224 0 NW 0 74.1 614
14:13:47 7 998 222 0 SW 0 74.8 597
14:16:45 7 998 220 0 S 0 74 615
14:19:51 7 998 215 0 W 0 75.5 625
14:22:48 7 998 213 0 SW 0 75.3 626
14:25:46 7 998 214 0 SW 0 76.4 612
14:28:48 7 998 215 0 NW 0 76.9 609
14:31:48 7 998 213 0 W 0 76.9 610
14:34:47 7 998 212 0 O 0 78 615
14:37:47 7 998 208 0 S 0 78.2 612
14:40:47 7 998 203 0 SO 0 76.8 615
14:43:46 7 998 204 0 O 0 77.8 612
14:46:46 7 998 202 0 S 0 78.7 614
14:49:48 7 998 205 0 SW 0 78.1 612
14:52:45 7 998 206 0 S 0 78.3 620
14:55:47 7 998 197 0 S 0 77.9 626
14:58:47 7 998 196 0 S 0 78.6 634
15:01:48 7 998 198 0 SW 0 78.7 638
15:04:47 7 999 202 0 SO 0 77.6 635
15:07:49 7 998 193 0 SW 0 77.9 635
15:10:48 7 998 194 0 SW 0 78 641
15:13:48 7 998 202 0 SO 0 78.4 650
15:16:48 7 998 212 0 SW 0 79.5 656
15:19:49 7 998 218 0 SO 0 79.9 650
15:22:47 7 998 226 0 S 0 79.4 652
15:25:48 7 998 221 0 SO 0 79.8 658
15:28:49 8 998 223 0 SW 0 78.3 662
15:31:49 8 997 218 0 O 0 77.4 659
15:34:52 8 998 212 0 SW 0 76.4 659
15:37:48 8 997 215 0 NW 0 75.7 658
15:40:47 8 997 203 0 S 0 75.7 667
15:43:46 8 997 197 0 O 0 75.5 664
15:46:47 7 997 189 0 SW 0 75.6 667
15:49:45 7 997 183 0 W 0.2575 77.1 659
15:52:47 7 997 178 0 0 76.8 664
15:55:48 7 998 198 0 S 0 77.2 665
15:58:45 7 997 211 0 SW 0 77.5 665
16:01:47 7 997 202 0 SW 0 77.2 665
16:04:47 7 996 190 0 S 0 77.4 660
16:07:48 7 997 122 0 SO 0 77.2 530
16:10:46 7 997 198 0 S 0 76.4 404
16:13:47 7 997 193 0 SW 0 76.8 466
16:16:48 7 996 177 0 SW 0 76.6 553
16:19:47 7 997 175 0 SO 0 76.6 572
16:22:48 7 997 195 0 S 0 77.8 562
16:25:46 7 996 172 0 S 0 78.3 559
16:28:46 7 997 162 0 S 0 78.1 556
16:31:47 7 996 149 0 SO 0 78.7 551
16:34:47 7 996 136 0 N 0 82.1 548
16:37:49 6 997 169 0 NW 0 83.8 542
16:40:50 6 996 166 0 S 0 88.3 550
16:43:48 6 996 171 0 W 0 88.7 550
16:46:47 6 996 166 0 SW 0 89.5 560
16:49:48 6 996 155 0 SW 0 90.2 556
16:52:48 6 996 134 0 S 0 90.4 560
16:55:47 6 996 126 0 SO 0 90.4 555
16:58:48 6 995 130 0 SO 0 90.8 560
17:01:47 6 996 125 0 SW 0 91 557
17:04:48 6 995 121 0 SO 0 91.2 562
17:07:48 6 995 104 0 SO 0 91.6 563
17:10:46 6 995 102 0 S 0 91.9 566
17:13:47 6 995 100 0 S 0 92.5 557
17:16:48 6 995 98 0 S 0 93.7 562
17:19:48 6 995 84 0 SW 0 94.7 553
17:22:50 5 995 76 0 S 0 95.7 545
17:25:48 5 995 58 0 SO 0 96.4 541
17:28:48 5 995 49 0 NW 0 96.6 545
17:31:47 5 995 51 0 S 0 96.6 536
17:34:47 5 995 51 0 SO 0 96.6 539
17:37:45 5 995 40 0 W 0 96.6 527
17:40:47 5 995 32 0 SW 0 96.6 530
17:43:46 5 995 24 0 S 0 96.6 518
17:46:47 6 995 20 0 SO 0 96.6 524
17:49:48 6 995 16 0 W 0 96.6 516
17:52:44 6 995 11 0 W 0 96.6 521
17:55:46 6 995 8 0 SW 0 96.6 524
17:58:47 6 995 5 0 SW 0 96.5 521
18:01:46 6 995 4 0 SO 0 96.3 524
18:04:48 6 995 0 0 O 0 96 524
18:07:50 6 995 0 0 SW 0 95.9 519
18:10:45 6 995 0 0 S 0 95.9 512
18:13:46 6 995 0 0 S 0 96 510
18:16:45 6 995 0 0 SW 0 96.1 512
18:19:46 6 995 0 0 SW 0 96.1 506
18:22:45 6 995 0 0 S 0 96.2 509
18:25:49 6 995 0 0 SW 0 96.3 501
18:28:48 6 995 0 0 SW 0 96.3 483
18:31:48 6 995 0 0 NO 0 96.4 480
18:34:47 6 995 0 0 NO 0 96.2 488
18:37:48 6 994 0 0 SW 0 95.9 492
18:40:45 6 995 0 0 SW 0 95.8 494
18:43:47 6 995 0 0 SW 0 95.4 497
18:46:47 6 995 0 0 SO 0 95.4 492
18:49:45 6 995 0 0 W 0 95.4 483
18:52:45 6 995 0 0 O 0 95.7 478
18:55:46 6 995 0 0 W 0 96.5 465
18:58:46 6 995 0 0 SO 0 96.6 466
19:01:47 6 995 0 0 NW 0 96.6 465
19:04:50 6 994 0 0 SW 0 96.6 471
19:07:46 6 994 0 0 S 0 96.6 465
19:10:47 6 994 0 0 NW 0 96.6 456
19:13:45 6 994 0 0 S 0 96.6 454
19:16:46 6 994 0 0 S 0 96.6 456
19:19:47 6 994 0 0 W 0 96.6 456
19:22:47 6 994 0 0 SO 0 96.6 463
19:25:45 6 994 0 0 W 0 96.6 448
19:28:44 6 994 0 0 S 0 96.6 444
19:31:45 6 994 0 0 W 0.2575 96.6 444
19:34:46 6 994 0 0 NW 0 96.6 442
19:37:45 6 994 0 0 SW 0 96.6 444
19:40:46 6 994 0 0 S 0 96.6 438
19:43:47 6 994 0 0 W 0 96.6 433
19:46:45 6 993 0 0 S 0 96.6 439
19:49:45 6 993 0 0 S 0 96.6 433
19:52:46 6 993 0 0 SO 0 96.6 436
19:55:46 6 993 0 0 SW 0.2575 96.6 430
19:58:44 6 993 0 0 W 0 96.6 427
20:01:49 6 993 0 0 S 0 96.6 428
20:04:44 6 993 0 0 W 0 96.6 430
20:07:48 6 993 0 0 W 0 96.6 422
20:10:46 6 993 0 0 S 0 96.6 419
20:13:46 6 994 0 0 SW 0 96.6 421
20:16:45 6 993 0 0 S 0 96.6 419
20:19:45 6 993 0 0 S 0 96.6 416
20:22:47 6 994 0 0 NW 0 96.6 412
20:25:47 6 994 0 0 W 0 96.6 407
20:28:46 6 994 0 0 S 0 96.6 409
20:31:48 6 992 0 0 SO 0 96.6 404
20:34:48 6 994 0 0 SW 0 96.6 404
20:37:48 6 994 0 0 S 0 96.6 406
20:40:47 6 994 0 0 NO 0 96.6 407
20:43:46 6 993 0 0 O 0 96.6 404
20:46:45 6 993 0 0 S 0.2575 96.6 406
20:49:46 6 993 0 0 SO 0 96.6 407
20:52:47 6 993 0 0 SW 0 96.6 406
20:55:46 6 993 0 0 SW 0 96.6 407
20:58:44 6 993 0 0 S 0 96.6 407
21:01:46 6 993 0 0 S 0 96.6 407
21:04:46 6 994 0 0 SW 0 96.6 404
21:07:46 7 993 0 0 W 0 96.6 407
21:10:46 7 993 0 0 S 0 96.6 407
21:13:46 7 994 0 0 SW 0.2575 96.6 407
21:16:47 7 993 0 0 NW 0 96.6 407
21:19:49 7 994 0 0 S 0 96.6 404
21:22:46 7 994 0 0 SW 0 96.6 407
21:25:46 7 993 0 0 O 0.2575 96.6 404
21:28:45 7 994 0 0 W 0 96.6 406
21:31:45 7 994 0 0 S 0 96.6 404
21:34:47 7 993 0 0 SO 0 96.6 407
21:37:47 7 994 0 0 W 0 96.6 407
21:40:49 7 995 0 0 SW 0.2575 96.6 409
21:43:44 7 995 0 0 W 0 96.6 407
21:46:47 7 994 0 0 SW 0 96.6 407
21:49:44 7 994 0 0 S 0 96.6 406
21:52:47 7 995 0 0 NW 0 96.6 407
21:55:45 7 995 0 0 SW 0 96.6 404
21:58:47 7 995 0 0 SW 0 96.6 407
22:01:47 7 995 0 0 NW 0 96.6 407
22:04:45 7 995 0 0 S 0 96.6 403
22:07:46 7 995 0 0 W 0 96.6 404
22:10:47 7 995 0 0 NW 0 96.6 407
22:13:45 7 995 0 0 W 0 96.6 404
22:16:45 7 995 0 0 S 0 96.6 401
22:19:49 7 995 0 0 NW 0 96.6 404
22:22:47 6 995 0 0 W 0 96.6 405
22:25:48 6 995 0 0 NW 0 96.6 407
22:28:48 6 995 0 0 NW 0 96.6 408
22:31:49 6 995 0 0 SW 0 96.6 408
22:34:45 6 995 0 0 O 0 96.6 404
22:37:48 6 995 0 0 W 0 96.6 404
22:40:48 6 995 0 0 NW 0 96.6 406
22:43:47 6 996 0 0 W 0 96.6 407
22:46:47 6 995 0 0 SW 0 96.6 407
22:49:46 6 996 0 0 W 0 96.6 404
22:52:47 6 996 0 0 SW 0 96.6 406
22:55:49 6 995 0 0 NO 0 96.6 401
22:58:45 6 996 0 0 0 96.6 407
23:01:45 6 996 0 0 SW 0 96.6 404
23:04:47 6 996 0 0 SO 0 96.6 404
23:07:47 6 996 0 0 SW 0 96.6 404
23:10:46 6 996 0 0 N 0 96.6 406
23:13:47 6 996 0 0 W 0 96.6 403
23:16:48 6 998 0 0 W 0 96.6 407
23:19:47 6 996 0 0 W 0 96.6 404
23:22:48 6 996 0 0 W 0 96.6 406
23:25:45 6 997 0 0 W 0 96.6 407
23:28:45 5 997 0 0 N 0 96.6 407
23:31:45 5 997 0 0 SW 0 96.6 407
23:34:47 5 997 0 0 S 0 96.6 407
23:37:47 5 997 0 0 SW 0 96.6 404
23:40:47 5 997 0 0 S 0 96.6 407
23:43:46 5 997 0 0 SW 0 96.6 407
23:46:47 5 997 0 0 NW 0 96.6 407
23:49:47 5 998 0 0 NO 0 96.6 407
23:52:46 5 998 0 0 S 0 96.6 407
23:55:48 5 998 0 0 SW 0 96.6 406
23:58:47 5 998 0 0 S 0 96.6 407

Letzte Änderung : 22-Jul-2022
Copyright Jens Köhler, Wolfsburg, Obere Dorfstraße 10d